TimeMDT,TemperatureF,Dew PointF,Humidity,Sea Level PressureIn,VisibilityMPH,Wind Direction,Wind SpeedMPH,Gust SpeedMPH,PrecipitationIn,Events,Conditions,WindDirDegrees,DateUTC
12:53 AM,53.1,30.0,41,30.06,10.0,WNW,11.5,-,N/A,,Clear,290,2012-09-20 06:53:00
1:53 AM,57.9,30.9,36,30.06,10.0,SW,8.1,-,N/A,,Clear,230,2012-09-20 07:53:00
2:53 AM,57.0,30.9,37,30.05,10.0,SW,10.4,-,N/A,,Clear,230,2012-09-20 08:53:00
3:53 AM,55.0,30.9,40,30.05,10.0,SW,13.8,-,N/A,,Clear,230,2012-09-20 09:53:00
4:53 AM,57.0,30.0,36,30.05,10.0,WSW,17.3,-,N/A,,Clear,240,2012-09-20 10:53:00
5:53 AM,57.0,30.0,36,30.06,10.0,WSW,18.4,-,N/A,,Clear,240,2012-09-20 11:53:00
6:53 AM,55.4,28.4,36,30.13,10.0,WSW,11.5,-,N/A,,Partly Cloudy,240,2012-09-20 12:53:00
7:53 AM,55.9,30.0,37,30.10,10.0,SW,10.4,-,N/A,,Partly Cloudy,230,2012-09-20 13:53:00
8:53 AM,57.9,32.0,37,30.11,10.0,SSW,5.8,-,N/A,,Clear,210,2012-09-20 14:53:00
9:53 AM,63.0,36.0,37,30.11,10.0,SSW,6.9,-,N/A,,Clear,200,2012-09-20 15:53:00
10:53 AM,68.0,34.0,28,30.11,10.0,SSW,10.4,-,N/A,,Clear,200,2012-09-20 16:53:00
11:53 AM,73.0,34.0,24,30.09,10.0,South,6.9,-,N/A,,Clear,190,2012-09-20 17:53:00
12:53 PM,77.0,34.0,21,30.07,10.0,Variable,4.6,-,N/A,,Clear,0,2012-09-20 18:53:00
1:53 PM,80.1,30.9,17,30.04,10.0,NNW,11.5,17.3,N/A,,Clear,330,2012-09-20 19:53:00
2:53 PM,81.0,32.0,17,30.01,10.0,WNW,15.0,23.0,N/A,,Clear,290,2012-09-20 20:53:00
3:53 PM,81.0,32.0,17,30.00,10.0,NNW,13.8,24.2,N/A,,Clear,340,2012-09-20 21:53:00
4:53 PM,81.0,30.9,16,29.99,10.0,NNW,11.5,-,N/A,,Clear,340,2012-09-20 22:53:00
5:53 PM,79.0,32.0,18,29.99,10.0,NE,6.9,-,N/A,,Clear,40,2012-09-20 23:53:00
6:53 PM,73.9,33.1,22,30.01,10.0,NNE,11.5,-,N/A,,Scattered Clouds,30,2012-09-21 00:53:00
7:53 PM,70.0,33.1,26,30.04,10.0,NNE,4.6,-,N/A,,Scattered Clouds,30,2012-09-21 01:53:00
8:53 PM,69.1,33.1,26,30.05,10.0,Calm,Calm,-,N/A,,Clear,0,2012-09-21 02:53:00
9:53 PM,68.0,34.0,28,30.05,10.0,Calm,Calm,-,N/A,,Clear,0,2012-09-21 03:53:00
10:53 PM,64.0,33.1,31,30.07,10.0,Calm,Calm,-,N/A,,Clear,0,2012-09-21 04:53:00
11:53 PM,63.0,33.1,33,30.07,10.0,SW,5.8,-,N/A,,Clear,220,2012-09-21 05:53:00